Location: Vaughan
(31.9146°N, 97.1736°W)
Time: 07:15:33
(UTC+00:00)

IRS-1C - Pass Details

Date: 10 December 2025
Orbit: 813 x 814 km, 99.0° (Epoch: 13 January)

Event Time Altitude Azimuth Distance (km) Brightness Sun altitude
Rises 00:17:40 0° 167° (SSE) 3,322 7.4 -11.1°
Reaches altitude 10° 00:19:59 10° 167° (SSE) 2,394 6.7 -11.6°
Maximum altitude 00:25:18 86° 257° (WSW) 820 4.2 -12.7°
Drops below altitude 10° 00:30:38 10° 346° (NNW) 2,407 6.5 -13.7°
Sets 00:32:59 0° 347° (NNW) 3,341 7.3 -14.2°
